Stanley, ID

7:54 PM MDT on September 25, 2017 (GMT -0600)
Stanley

Weather History for KSNT - April, 2014

Change the Weather History Date:

Thursday, April 24, 2014

  Actual Average Record
Temperature  
Mean Temperature 38 °F 36 °F  
Max Temperature 44 °F 50 °F 73 °F (1977)
Min Temperature 32 °F 22 °F 6 °F (2011)
Degree Days  
Heating Degree Days 27 29  
Month to date heating degree days 769 776  
Since 1 July heating degree days 9084 9494  
Cooling Degree Days 0 0  
Month to date cooling degree days 0 0  
Year to date cooling degree days 0 0  
Moisture  
Dew Point 29 °F    
Average Humidity 80    
Maximum Humidity 100    
Minimum Humidity 60    
Precipitation  
Precipitation 0.38 in 0.05 in 0.38 in (2014)
Month to date precipitation 1.93 1.37  
Year to date precipitation 11.46 6.49  
Sea Level Pressure  
Sea Level Pressure 29.85 in    
Wind  
Wind Speed 7 mph (SSE)    
Max Wind Speed 17 mph    
Max Gust Speed 24 mph    
T = Trace of Precipitation, MM = Missing Value Source: NWS Daily Summary

Daily Weather History Graph

Daily Weather History Graph

Search for Another Location

Airport or City:

Trip Planner

Search our weather history database for the weather conditions in past years. The results will help you decide how hot, cold, wet, or windy it might be!

Date:

Astronomy

Apr. 24, 2014 Rise Set
Actual Time 6:41 AM MDT 8:35 PM MDT
Civil Twilight 6:10 AM MDT 9:06 PM MDT
Nautical Twilight 5:32 AM MDT 9:44 PM MDT
Astronomical Twilight 4:51 AM MDT 10:26 PM MDT
Moon 4:06 AM MDT (4/24) 3:45 PM MDT (4/24)
Length of Visible Light 14h 56m
Length of Day
13h 53m
Waning Crescent, 24% of the Moon is Illuminated
Apr 24
Waning Crescent
Apr 29
New
May 6
First Quarter
May 14
Full
May 21
Last Quarter

Hourly Weather History & Observations

Time (MDT) Temp. Windchill Dew Point Humidity Pressure Visibility Wind Dir Wind Speed Gust Speed Precip Events Conditions
12:51 AM 33.1 °F 27.7 °F 24.1 °F 70% 29.91 in - SE 5.8 mph - N/A   Unknown
1:51 AM 33.1 °F 26.1 °F 24.1 °F 70% 29.91 in - SSE 8.1 mph - N/A   Unknown
2:51 AM 34.0 °F 29.8 °F 25.0 °F 70% 29.90 in - SSE 4.6 mph - N/A   Unknown
3:51 AM 35.1 °F 29.3 °F 24.1 °F 64% 29.86 in - South 6.9 mph - N/A   Unknown
4:51 AM 36.0 °F 30.3 °F 24.1 °F 62% 29.85 in - South 6.9 mph - N/A   Unknown
5:51 AM 36.0 °F 29.6 °F 24.1 °F 62% 29.83 in - SSE 8.1 mph - N/A   Unknown
6:51 AM 34.0 °F 26.0 °F 26.1 °F 73% 29.83 in - SE 10.4 mph - N/A   Unknown
7:51 AM 33.1 °F 23.9 °F 27.0 °F 78% 29.83 in - SE 12.7 mph 20.7 mph N/A   Unknown
8:51 AM 32.0 °F 23.6 °F 28.9 °F 88% 29.86 in - SE 10.4 mph 17.3 mph N/A   Unknown
9:51 AM 33.1 °F 24.9 °F 30.0 °F 89% 29.86 in - SE 10.4 mph 18.4 mph 0.02 in   Unknown
10:51 AM 35.1 °F 26.4 °F 30.0 °F 82% 29.85 in - SE 12.7 mph 23.0 mph N/A   Unknown
11:51 AM 37.9 °F 30.9 °F 28.9 °F 70% 29.86 in - ESE 10.4 mph - N/A   Unknown
12:51 PM 39.0 °F 33.4 °F 28.9 °F 67% 29.85 in - ESE 8.1 mph - N/A   Unknown
1:51 PM 37.0 °F 33.3 °F 30.9 °F 79% 29.86 in - South 4.6 mph - N/A   Unknown
2:51 PM 39.9 °F 33.9 °F 30.0 °F 68% 29.84 in - SSE 9.2 mph - N/A   Unknown
3:51 PM 41.0 °F 34.7 °F 28.9 °F 62% 29.82 in - SW 10.4 mph 21.9 mph N/A   Unknown
4:51 PM 39.9 °F 35.1 °F 28.9 °F 65% 29.83 in - SSW 6.9 mph - N/A   Unknown
5:51 PM 41.0 °F 36.4 °F 28.9 °F 62% 29.80 in - SE 6.9 mph 18.4 mph N/A   Unknown
6:51 PM 33.1 °F 28.7 °F 32.0 °F 96% 29.86 in - Variable 4.6 mph - 0.04 in   Unknown
7:51 PM 35.1 °F 32.2 °F 33.1 °F 92% 29.84 in - West 3.5 mph - 0.01 in   Unknown
8:51 PM 33.1 °F 30.0 °F 32.0 °F 96% 29.86 in - NNW 3.5 mph - 0.02 in   Unknown
9:51 PM 32.0 °F - 32.0 °F 100% 29.85 in - Calm Calm - 0.20 in   Unknown
10:51 PM 32.0 °F 27.5 °F 32.0 °F 100% 29.84 in - South 4.6 mph - 0.09 in   Unknown
11:51 PM 32.0 °F - 32.0 °F 100% 29.82 in - Calm Calm - N/A   Unknown